Data supplied by UK-AIR on 4/5/2022
All Data GMT hour ending 
Status: R =Ratified P=Provisional,P*=As supplied
,,London Westminster,,,,,,,,,,,,,,,,,,,,,,,
Date,time,"Nitric oxide",status,unit,"Nitrogen dioxide",status,unit,"Nitrogen oxides as nitrogen dioxide",status,unit,"PM<sub>2.5</sub> particulate matter (Hourly measured)",status,unit
 
01-01-2021,01:00,1.82346,R,ugm-3,24.84570,R,ugm-3,27.64163,R,ugm-3,20.000,R,ugm-3 (BAM)
01-01-2021,02:00,0.88709,R,ugm-3,20.14728,R,ugm-3,21.50746,R,ugm-3,26.000,R,ugm-3 (BAM)
01-01-2021,03:00,1.40456,R,ugm-3,22.26946,R,ugm-3,24.42308,R,ugm-3,24.000,R,ugm-3 (BAM)
01-01-2021,04:00,0.66532,R,ugm-3,17.83676,R,ugm-3,18.85689,R,ugm-3,15.000,R,ugm-3 (BAM)
01-01-2021,05:00,1.58937,R,ugm-3,26.01874,R,ugm-3,28.45573,R,ugm-3,21.000,R,ugm-3 (BAM)
01-01-2021,06:00,1.73722,R,ugm-3,25.50805,R,ugm-3,28.17175,R,ugm-3,22.000,R,ugm-3 (BAM)
01-01-2021,07:00,4.47241,R,ugm-3,27.84591,R,ugm-3,34.70350,R,ugm-3,18.000,R,ugm-3 (BAM)
01-01-2021,08:00,3.51139,R,ugm-3,32.55692,R,ugm-3,37.94098,R,ugm-3,15.000,R,ugm-3 (BAM)
01-01-2021,09:00,2.51342,R,ugm-3,30.16807,R,ugm-3,34.02192,R,ugm-3,14.000,R,ugm-3 (BAM)
01-01-2021,10:00,3.47443,R,ugm-3,31.42084,R,ugm-3,36.74822,R,ugm-3,21.000,R,ugm-3 (BAM)
01-01-2021,11:00,3.58532,R,ugm-3,28.35412,R,ugm-3,33.85153,R,ugm-3,21.000,R,ugm-3 (BAM)
01-01-2021,12:00,5.24861,R,ugm-3,32.96031,R,ugm-3,41.00806,R,ugm-3,29.000,R,ugm-3 (BAM)
01-01-2021,13:00,7.54025,R,ugm-3,34.72870,R,ugm-3,46.29027,R,ugm-3,29.000,R,ugm-3 (BAM)
01-01-2021,14:00,8.94481,R,ugm-3,37.68689,R,ugm-3,51.40207,R,ugm-3,32.000,R,ugm-3 (BAM)
01-01-2021,15:00,13.30633,R,ugm-3,41.27973,R,ugm-3,61.68249,R,ugm-3,32.000,R,ugm-3 (BAM)
01-01-2021,16:00,18.25924,R,ugm-3,44.24978,R,ugm-3,72.24689,R,ugm-3,36.000,R,ugm-3 (BAM)
01-01-2021,17:00,21.65975,R,ugm-3,45.96508,R,ugm-3,79.17623,R,ugm-3,38.000,R,ugm-3 (BAM)
01-01-2021,18:00,25.65165,R,ugm-3,46.83039,R,ugm-3,86.16237,R,ugm-3,34.000,R,ugm-3 (BAM)
01-01-2021,19:00,21.29013,R,ugm-3,47.44059,R,ugm-3,80.08500,R,ugm-3,24.000,R,ugm-3 (BAM)
01-01-2021,20:00,13.15848,R,ugm-3,45.59587,R,ugm-3,65.77194,R,ugm-3,18.000,R,ugm-3 (BAM)
01-01-2021,21:00,3.58532,R,ugm-3,35.68105,R,ugm-3,41.17846,R,ugm-3,13.000,R,ugm-3 (BAM)
01-01-2021,22:00,1.55241,R,ugm-3,26.01861,R,ugm-3,28.39893,R,ugm-3,11.000,R,ugm-3 (BAM)
01-01-2021,23:00,1.36760,R,ugm-3,21.81495,R,ugm-3,23.91190,R,ugm-3,8.000,R,ugm-3 (BAM)
01-01-2021,24:00,1.10886,R,ugm-3,20.33734,R,ugm-3,22.03757,R,ugm-3,10.000,R,ugm-3 (BAM)
02-01-2021,01:00,1.13334,R,ugm-3,18.69948,R,ugm-3,20.43725,R,ugm-3,7.000,R,ugm-3 (BAM)
02-01-2021,02:00,0.93624,R,ugm-3,15.89827,R,ugm-3,17.33382,R,ugm-3,11.000,R,ugm-3 (BAM)
02-01-2021,03:00,0.81305,R,ugm-3,14.76252,R,ugm-3,16.00918,R,ugm-3,8.000,R,ugm-3 (BAM)
02-01-2021,04:00,0.59131,R,ugm-3,13.22911,R,ugm-3,14.13577,R,ugm-3,7.000,R,ugm-3 (BAM)
02-01-2021,05:00,0.77609,R,ugm-3,14.59211,R,ugm-3,15.78210,R,ugm-3,10.000,R,ugm-3 (BAM)
02-01-2021,06:00,0.85001,R,ugm-3,15.27356,R,ugm-3,16.57688,R,ugm-3,7.000,R,ugm-3 (BAM)
02-01-2021,07:00,1.40436,R,ugm-3,17.43238,R,ugm-3,19.58570,R,ugm-3,8.000,R,ugm-3 (BAM)
02-01-2021,08:00,1.47827,R,ugm-3,18.62476,R,ugm-3,20.89141,R,ugm-3,8.000,R,ugm-3 (BAM)
02-01-2021,09:00,1.62610,R,ugm-3,19.59027,R,ugm-3,22.08359,R,ugm-3,6.000,R,ugm-3 (BAM)
02-01-2021,10:00,2.99350,R,ugm-3,22.65970,R,ugm-3,27.24967,R,ugm-3,7.000,R,ugm-3 (BAM)
02-01-2021,11:00,3.28916,R,ugm-3,23.34177,R,ugm-3,28.38507,R,ugm-3,5.000,R,ugm-3 (BAM)
02-01-2021,12:00,5.17396,R,ugm-3,26.29911,R,ugm-3,34.23240,R,ugm-3,6.000,R,ugm-3 (BAM)
02-01-2021,13:00,5.95005,R,ugm-3,23.51955,R,ugm-3,32.64283,R,ugm-3,5.000,R,ugm-3 (BAM)
02-01-2021,14:00,4.73047,R,ugm-3,17.21464,R,ugm-3,24.46793,R,ugm-3,4.000,R,ugm-3 (BAM)
02-01-2021,15:00,3.69568,R,ugm-3,23.68353,R,ugm-3,29.35016,R,ugm-3,6.000,R,ugm-3 (BAM)
02-01-2021,16:00,5.13700,R,ugm-3,26.01515,R,ugm-3,33.89178,R,ugm-3,9.000,R,ugm-3 (BAM)
02-01-2021,17:00,7.90876,R,ugm-3,33.74368,R,ugm-3,45.87028,R,ugm-3,7.000,R,ugm-3 (BAM)
02-01-2021,18:00,4.98917,R,ugm-3,38.05001,R,ugm-3,45.69997,R,ugm-3,7.000,R,ugm-3 (BAM)
02-01-2021,19:00,5.24787,R,ugm-3,47.02042,R,ugm-3,55.06704,R,ugm-3,10.000,R,ugm-3 (BAM)
02-01-2021,20:00,5.65439,R,ugm-3,45.99970,R,ugm-3,54.66965,R,ugm-3,9.000,R,ugm-3 (BAM)
02-01-2021,21:00,4.47178,R,ugm-3,46.50731,R,ugm-3,53.36394,R,ugm-3,14.000,R,ugm-3 (BAM)
02-01-2021,22:00,2.73481,R,ugm-3,39.12231,R,ugm-3,43.31562,R,ugm-3,15.000,R,ugm-3 (BAM)
02-01-2021,23:00,2.29132,R,ugm-3,36.28256,R,ugm-3,39.79587,R,ugm-3,17.000,R,ugm-3 (BAM)
02-01-2021,24:00,2.06958,R,ugm-3,30.83200,R,ugm-3,34.00532,R,ugm-3,16.000,R,ugm-3 (BAM)
03-01-2021,01:00,1.52733,R,ugm-3,29.05559,R,ugm-3,31.39747,R,ugm-3,11.000,R,ugm-3 (BAM)
03-01-2021,02:00,0.88684,R,ugm-3,17.70565,R,ugm-3,19.06545,R,ugm-3,17.000,R,ugm-3 (BAM)
03-01-2021,03:00,0.88684,R,ugm-3,14.01740,R,ugm-3,15.37720,R,ugm-3,9.000,R,ugm-3 (BAM)
03-01-2021,04:00,0.88684,R,ugm-3,16.00338,R,ugm-3,17.36318,R,ugm-3,6.000,R,ugm-3 (BAM)
03-01-2021,05:00,0.92379,R,ugm-3,20.59960,R,ugm-3,22.01606,R,ugm-3,8.000,R,ugm-3 (BAM)
03-01-2021,06:00,1.47806,R,ugm-3,20.99806,R,ugm-3,23.26439,R,ugm-3,14.000,R,ugm-3 (BAM)
03-01-2021,07:00,1.92148,R,ugm-3,24.46035,R,ugm-3,27.40659,R,ugm-3,12.000,R,ugm-3 (BAM)
03-01-2021,08:00,2.14319,R,ugm-3,27.86540,R,ugm-3,31.15159,R,ugm-3,10.000,R,ugm-3 (BAM)
03-01-2021,09:00,2.51271,R,ugm-3,22.36223,R,ugm-3,26.21500,R,ugm-3,9.000,R,ugm-3 (BAM)
03-01-2021,10:00,4.13858,R,ugm-3,23.27381,R,ugm-3,29.61954,R,ugm-3,5.000,R,ugm-3 (BAM)
03-01-2021,11:00,4.87761,R,ugm-3,23.10526,R,ugm-3,30.58417,R,ugm-3,7.000,R,ugm-3 (BAM)
03-01-2021,12:00,6.31873,R,ugm-3,23.56248,R,ugm-3,33.25106,R,ugm-3,8.000,R,ugm-3 (BAM)
03-01-2021,13:00,7.50118,R,ugm-3,25.66464,R,ugm-3,37.16628,R,ugm-3,8.000,R,ugm-3 (BAM)
03-01-2021,14:00,4.84066,R,ugm-3,21.68662,R,ugm-3,29.10886,R,ugm-3,10.000,R,ugm-3 (BAM)
03-01-2021,15:00,4.50810,R,ugm-3,21.85609,R,ugm-3,28.76841,R,ugm-3,7.000,R,ugm-3 (BAM)
03-01-2021,16:00,3.14089,R,ugm-3,23.66874,R,ugm-3,28.48470,R,ugm-3,5.000,R,ugm-3 (BAM)
03-01-2021,17:00,3.84297,R,ugm-3,26.39397,R,ugm-3,32.28644,R,ugm-3,7.000,R,ugm-3 (BAM)
03-01-2021,18:00,2.21710,R,ugm-3,22.87224,R,ugm-3,26.27174,R,ugm-3,8.000,R,ugm-3 (BAM)
03-01-2021,19:00,2.99308,R,ugm-3,27.07294,R,ugm-3,31.66227,R,ugm-3,12.000,R,ugm-3 (BAM)
03-01-2021,20:00,2.47576,R,ugm-3,25.88018,R,ugm-3,29.67629,R,ugm-3,12.000,R,ugm-3 (BAM)
03-01-2021,21:00,2.73442,R,ugm-3,27.75326,R,ugm-3,31.94598,R,ugm-3,12.000,R,ugm-3 (BAM)
03-01-2021,22:00,2.36490,R,ugm-3,25.93667,R,ugm-3,29.56280,R,ugm-3,14.000,R,ugm-3 (BAM)
03-01-2021,23:00,2.54966,R,ugm-3,21.00050,R,ugm-3,24.90992,R,ugm-3,13.000,R,ugm-3 (BAM)
03-01-2021,24:00,1.36721,R,ugm-3,18.10394,R,ugm-3,20.20030,R,ugm-3,8.000,R,ugm-3 (BAM)
04-01-2021,01:00,1.03450,R,ugm-3,14.44514,R,ugm-3,16.03135,R,ugm-3,4.000,R,ugm-3 (BAM)
04-01-2021,02:00,1.28081,R,ugm-3,15.88234,R,ugm-3,17.84622,R,ugm-3,10.000,R,ugm-3 (BAM)
04-01-2021,03:00,1.07145,R,ugm-3,16.16555,R,ugm-3,17.80841,R,ugm-3,8.000,R,ugm-3 (BAM)
04-01-2021,04:00,0.92366,R,ugm-3,14.69071,R,ugm-3,16.10697,R,ugm-3,6.000,R,ugm-3 (BAM)
04-01-2021,05:00,1.03450,R,ugm-3,13.44318,R,ugm-3,15.02939,R,ugm-3,4.000,R,ugm-3 (BAM)
04-01-2021,06:00,1.36702,R,ugm-3,13.78405,R,ugm-3,15.88012,R,ugm-3,3.000,R,ugm-3 (BAM)
04-01-2021,07:00,2.58625,R,ugm-3,20.30836,R,ugm-3,24.27389,R,ugm-3,5.000,R,ugm-3 (BAM)
04-01-2021,08:00,4.39662,R,ugm-3,24.79198,R,ugm-3,31.53337,R,ugm-3,5.000,R,ugm-3 (BAM)
04-01-2021,09:00,5.65280,R,ugm-3,26.09860,R,ugm-3,34.76611,R,ugm-3,5.000,R,ugm-3 (BAM)
04-01-2021,10:00,6.42868,R,ugm-3,29.50283,R,ugm-3,39.36000,R,ugm-3,4.000,R,ugm-3 (BAM)
04-01-2021,11:00,4.24884,R,ugm-3,22.86342,R,ugm-3,29.37821,R,ugm-3,4.000,R,ugm-3 (BAM)
04-01-2021,12:00,6.17005,R,ugm-3,21.61904,R,ugm-3,31.07965,R,ugm-3,5.000,R,ugm-3 (BAM)
04-01-2021,13:00,7.94348,R,ugm-3,23.83400,R,ugm-3,36.01383,R,ugm-3,4.000,R,ugm-3 (BAM)
04-01-2021,14:00,3.17739,R,ugm-3,19.79896,R,ugm-3,24.67089,R,ugm-3,3.000,R,ugm-3 (BAM)
04-01-2021,15:00,3.80548,R,ugm-3,22.52236,R,ugm-3,28.35735,R,ugm-3,4.000,R,ugm-3 (BAM)
04-01-2021,16:00,3.36212,R,ugm-3,21.27386,R,ugm-3,26.42905,R,ugm-3,3.000,R,ugm-3 (BAM)
04-01-2021,17:00,4.54441,R,ugm-3,24.33852,R,ugm-3,31.30651,R,ugm-3,2.000,R,ugm-3 (BAM)
04-01-2021,18:00,2.73403,R,ugm-3,22.63392,R,ugm-3,26.82605,R,ugm-3,6.000,R,ugm-3 (BAM)
04-01-2021,19:00,2.77098,R,ugm-3,22.29370,R,ugm-3,26.54248,R,ugm-3,6.000,R,ugm-3 (BAM)
04-01-2021,20:00,2.47541,R,ugm-3,20.02460,R,ugm-3,23.82017,R,ugm-3,6.000,R,ugm-3 (BAM)
04-01-2021,21:00,2.03205,R,ugm-3,22.06555,R,ugm-3,25.18132,R,ugm-3,7.000,R,ugm-3 (BAM)
04-01-2021,22:00,1.92121,R,ugm-3,20.53406,R,ugm-3,23.47988,R,ugm-3,4.000,R,ugm-3 (BAM)
04-01-2021,23:00,1.21923,R,ugm-3,16.56281,R,ugm-3,18.43228,R,ugm-3,4.000,R,ugm-3 (BAM)
04-01-2021,24:00,1.36702,R,ugm-3,13.95420,R,ugm-3,16.05026,R,ugm-3,5.000,R,ugm-3 (BAM)
05-01-2021,01:00,0.88659,R,ugm-3,13.15245,R,ugm-3,14.51186,R,ugm-3,7.000,R,ugm-3 (BAM)
05-01-2021,02:00,0.73882,R,ugm-3,11.86736,R,ugm-3,13.00021,R,ugm-3,6.000,R,ugm-3 (BAM)
05-01-2021,03:00,1.10824,R,ugm-3,11.84891,R,ugm-3,13.54818,R,ugm-3,3.000,R,ugm-3 (BAM)
05-01-2021,04:00,0.99741,R,ugm-3,12.52902,R,ugm-3,14.05837,R,ugm-3,4.000,R,ugm-3 (BAM)
05-01-2021,05:00,1.10824,R,ugm-3,12.47247,R,ugm-3,14.17174,R,ugm-3,4.000,R,ugm-3 (BAM)
05-01-2021,06:00,1.21906,R,ugm-3,15.36364,R,ugm-3,17.23284,R,ugm-3,3.000,R,ugm-3 (BAM)
05-01-2021,07:00,2.43812,R,ugm-3,20.18350,R,ugm-3,23.92190,R,ugm-3,5.000,R,ugm-3 (BAM)
05-01-2021,08:00,3.80494,R,ugm-3,24.49336,R,ugm-3,30.32753,R,ugm-3,4.000,R,ugm-3 (BAM)
05-01-2021,09:00,5.17177,R,ugm-3,28.97328,R,ugm-3,36.90322,R,ugm-3,2.000,R,ugm-3 (BAM)
05-01-2021,10:00,4.72847,R,ugm-3,28.00907,R,ugm-3,35.25929,R,ugm-3,4.000,R,ugm-3 (BAM)
05-01-2021,11:00,7.83154,R,ugm-3,27.95613,R,ugm-3,39.96431,R,ugm-3,5.000,R,ugm-3 (BAM)
05-01-2021,12:00,6.09530,R,ugm-3,24.83625,R,ugm-3,34.18224,R,ugm-3,5.000,R,ugm-3 (BAM)
05-01-2021,13:00,4.95012,R,ugm-3,24.77818,R,ugm-3,32.36826,R,ugm-3,7.000,R,ugm-3 (BAM)
05-01-2021,14:00,5.35648,R,ugm-3,26.59265,R,ugm-3,34.80580,R,ugm-3,7.000,R,ugm-3 (BAM)
05-01-2021,15:00,4.91318,R,ugm-3,26.02525,R,ugm-3,33.55868,R,ugm-3,7.000,R,ugm-3 (BAM)
05-01-2021,16:00,5.28259,R,ugm-3,25.17539,R,ugm-3,33.27525,R,ugm-3,6.000,R,ugm-3 (BAM)
05-01-2021,17:00,4.76542,R,ugm-3,26.30850,R,ugm-3,33.61537,R,ugm-3,6.000,R,ugm-3 (BAM)
05-01-2021,18:00,5.79977,R,ugm-3,31.46827,R,ugm-3,40.36112,R,ugm-3,6.000,R,ugm-3 (BAM)
05-01-2021,19:00,4.98706,R,ugm-3,28.97306,R,ugm-3,36.61978,R,ugm-3,10.000,R,ugm-3 (BAM)
05-01-2021,20:00,3.14000,R,ugm-3,26.53329,R,ugm-3,31.34789,R,ugm-3,7.000,R,ugm-3 (BAM)
05-01-2021,21:00,3.14000,R,ugm-3,22.50852,R,ugm-3,27.32312,R,ugm-3,5.000,R,ugm-3 (BAM)
05-01-2021,22:00,2.32730,R,ugm-3,20.75024,R,ugm-3,24.31871,R,ugm-3,8.000,R,ugm-3 (BAM)
05-01-2021,23:00,2.43812,R,ugm-3,17.34915,R,ugm-3,21.08755,R,ugm-3,7.000,R,ugm-3 (BAM)
05-01-2021,24:00,1.66235,R,ugm-3,17.00810,R,ugm-3,19.55700,R,ugm-3,5.000,R,ugm-3 (BAM)
06-01-2021,01:00,1.23120,R,ugm-3,14.43005,R,ugm-3,16.31786,R,ugm-3,4.000,R,ugm-3 (BAM)
06-01-2021,02:00,1.08346,R,ugm-3,13.75004,R,ugm-3,15.41131,R,ugm-3,4.000,R,ugm-3 (BAM)
06-01-2021,03:00,1.25582,R,ugm-3,13.03247,R,ugm-3,14.95804,R,ugm-3,5.000,R,ugm-3 (BAM)
06-01-2021,04:00,1.36663,R,ugm-3,12.86257,R,ugm-3,14.95804,R,ugm-3,3.000,R,ugm-3 (BAM)
06-01-2021,05:00,1.36663,R,ugm-3,14.05241,R,ugm-3,16.14788,R,ugm-3,3.000,R,ugm-3 (BAM)
06-01-2021,06:00,1.69906,R,ugm-3,15.86573,R,ugm-3,18.47091,R,ugm-3,4.000,R,ugm-3 (BAM)
06-01-2021,07:00,2.95488,R,ugm-3,20.85259,R,ugm-3,25.38334,R,ugm-3,7.000,R,ugm-3 (BAM)
06-01-2021,08:00,5.76202,R,ugm-3,29.91995,R,ugm-3,38.75492,R,ugm-3,9.000,R,ugm-3 (BAM)
06-01-2021,09:00,8.34754,R,ugm-3,35.19100,R,ugm-3,47.99038,R,ugm-3,8.000,R,ugm-3 (BAM)
06-01-2021,10:00,11.33935,R,ugm-3,36.09956,R,ugm-3,53.48632,R,ugm-3,12.000,R,ugm-3 (BAM)
06-01-2021,11:00,10.82225,R,ugm-3,31.90643,R,ugm-3,48.50031,R,ugm-3,8.000,R,ugm-3 (BAM)
06-01-2021,12:00,10.85918,R,ugm-3,29.98004,R,ugm-3,46.63056,R,ugm-3,6.000,R,ugm-3 (BAM)
06-01-2021,13:00,7.75656,R,ugm-3,23.57546,R,ugm-3,35.46869,R,ugm-3,5.000,R,ugm-3 (BAM)
06-01-2021,14:00,8.64302,R,ugm-3,24.25597,R,ugm-3,37.50842,R,ugm-3,6.000,R,ugm-3 (BAM)
06-01-2021,15:00,8.79077,R,ugm-3,26.74907,R,ugm-3,40.22806,R,ugm-3,6.000,R,ugm-3 (BAM)
06-01-2021,16:00,5.87282,R,ugm-3,27.14372,R,ugm-3,36.14860,R,ugm-3,9.000,R,ugm-3 (BAM)
06-01-2021,17:00,7.01784,R,ugm-3,36.71991,R,ugm-3,47.48044,R,ugm-3,6.000,R,ugm-3 (BAM)
06-01-2021,18:00,6.64848,R,ugm-3,41.19574,R,ugm-3,51.38993,R,ugm-3,5.000,R,ugm-3 (BAM)
06-01-2021,19:00,8.31060,R,ugm-3,48.22260,R,ugm-3,60.96534,R,ugm-3,9.000,R,ugm-3 (BAM)
06-01-2021,20:00,4.98636,R,ugm-3,45.04745,R,ugm-3,52.69310,R,ugm-3,7.000,R,ugm-3 (BAM)
06-01-2021,21:00,6.31606,R,ugm-3,44.76505,R,ugm-3,54.44953,R,ugm-3,8.000,R,ugm-3 (BAM)
06-01-2021,22:00,3.50892,R,ugm-3,34.22454,R,ugm-3,39.60481,R,ugm-3,9.000,R,ugm-3 (BAM)
06-01-2021,23:00,2.54858,R,ugm-3,35.24376,R,ugm-3,39.15154,R,ugm-3,14.000,R,ugm-3 (BAM)
06-01-2021,24:00,1.69906,R,ugm-3,27.02760,R,ugm-3,29.63278,R,ugm-3,13.000,R,ugm-3 (BAM)
07-01-2021,01:00,1.28027,R,ugm-3,26.65474,R,ugm-3,28.61779,R,ugm-3,12.000,R,ugm-3 (BAM)
07-01-2021,02:00,1.23103,R,ugm-3,23.18134,R,ugm-3,25.06888,R,ugm-3,9.000,R,ugm-3 (BAM)
07-01-2021,03:00,1.10792,R,ugm-3,22.08644,R,ugm-3,23.78524,R,ugm-3,10.000,R,ugm-3 (BAM)
07-01-2021,04:00,1.58802,R,ugm-3,27.35324,R,ugm-3,29.78818,R,ugm-3,13.000,R,ugm-3 (BAM)
07-01-2021,05:00,2.14199,R,ugm-3,27.97626,R,ugm-3,31.26060,R,ugm-3,18.000,R,ugm-3 (BAM)
07-01-2021,06:00,1.44030,R,ugm-3,29.67511,R,ugm-3,31.88354,R,ugm-3,18.000,R,ugm-3 (BAM)
07-01-2021,07:00,4.69021,R,ugm-3,41.51155,R,ugm-3,48.70310,R,ugm-3,15.000,R,ugm-3 (BAM)
07-01-2021,08:00,10.96844,R,ugm-3,52.61219,R,ugm-3,69.43024,R,ugm-3,21.000,R,ugm-3 (BAM)
07-01-2021,09:00,26.14700,R,ugm-3,57.59786,R,ugm-3,97.68936,R,ugm-3,23.000,R,ugm-3 (BAM)
07-01-2021,10:00,20.12728,R,ugm-3,54.19914,R,ugm-3,85.06054,R,ugm-3,17.000,R,ugm-3 (BAM)
07-01-2021,11:00,28.69522,R,ugm-3,52.67127,R,ugm-3,96.67000,R,ugm-3,16.000,R,ugm-3 (BAM)
07-01-2021,12:00,27.77195,R,ugm-3,53.06756,R,ugm-3,95.65063,R,ugm-3,19.000,R,ugm-3 (BAM)
07-01-2021,13:00,24.89135,R,ugm-3,46.95096,R,ugm-3,85.11717,R,ugm-3,23.000,R,ugm-3 (BAM)
07-01-2021,14:00,22.78630,R,ugm-3,47.06393,R,ugm-3,82.00243,R,ugm-3,21.000,R,ugm-3 (BAM)
07-01-2021,15:00,16.13876,R,ugm-3,46.83649,R,ugm-3,71.58223,R,ugm-3,19.000,R,ugm-3 (BAM)
07-01-2021,16:00,19.42560,R,ugm-3,52.72662,R,ugm-3,82.51212,R,ugm-3,28.000,R,ugm-3 (BAM)
07-01-2021,17:00,29.80315,R,ugm-3,58.33457,R,ugm-3,104.03209,R,ugm-3,27.000,R,ugm-3 (BAM)
07-01-2021,18:00,24.74363,R,ugm-3,55.67219,R,ugm-3,93.61190,R,ugm-3,27.000,R,ugm-3 (BAM)
07-01-2021,19:00,23.19254,R,ugm-3,56.35156,R,ugm-3,91.91295,R,ugm-3,24.000,R,ugm-3 (BAM)
07-01-2021,20:00,14.03370,R,ugm-3,57.31303,R,ugm-3,78.83107,R,ugm-3,22.000,R,ugm-3 (BAM)
07-01-2021,21:00,7.12764,R,ugm-3,52.66829,R,ugm-3,63.59719,R,ugm-3,22.000,R,ugm-3 (BAM)
07-01-2021,22:00,6.83220,R,ugm-3,51.36573,R,ugm-3,61.84162,R,ugm-3,25.000,R,ugm-3 (BAM)
07-01-2021,23:00,2.51129,R,ugm-3,40.66177,R,ugm-3,44.51237,R,ugm-3,25.000,R,ugm-3 (BAM)
07-01-2021,24:00,2.17892,R,ugm-3,40.20868,R,ugm-3,43.54964,R,ugm-3,26.000,R,ugm-3 (BAM)
08-01-2021,01:00,2.36324,R,ugm-3,37.58398,R,ugm-3,41.20756,R,ugm-3,24.000,R,ugm-3 (BAM)
08-01-2021,02:00,1.72319,R,ugm-3,33.81065,R,ugm-3,36.45284,R,ugm-3,27.000,R,ugm-3 (BAM)
08-01-2021,03:00,2.62172,R,ugm-3,34.30086,R,ugm-3,38.32076,R,ugm-3,24.000,R,ugm-3 (BAM)
08-01-2021,04:00,2.25246,R,ugm-3,35.09346,R,ugm-3,38.54718,R,ugm-3,22.000,R,ugm-3 (BAM)
08-01-2021,05:00,3.84026,R,ugm-3,37.30037,R,ugm-3,43.18869,R,ugm-3,26.000,R,ugm-3 (BAM)
08-01-2021,06:00,8.45596,R,ugm-3,40.12873,R,ugm-3,53.09436,R,ugm-3,23.000,R,ugm-3 (BAM)
08-01-2021,07:00,23.92778,R,ugm-3,44.42448,R,ugm-3,81.11323,R,ugm-3,23.000,R,ugm-3 (BAM)
08-01-2021,08:00,27.39878,R,ugm-3,43.91367,R,ugm-3,85.92455,R,ugm-3,23.000,R,ugm-3 (BAM)
08-01-2021,09:00,49.00025,R,ugm-3,52.05605,R,ugm-3,127.18871,R,ugm-3,25.000,R,ugm-3 (BAM)
08-01-2021,10:00,47.33860,R,ugm-3,54.26425,R,ugm-3,126.84909,R,ugm-3,20.000,R,ugm-3 (BAM)
08-01-2021,11:00,59.52404,R,ugm-3,56.12734,R,ugm-3,147.39627,R,ugm-3,30.000,R,ugm-3 (BAM)
08-01-2021,12:00,71.26638,R,ugm-3,57.31137,R,ugm-3,166.58495,R,ugm-3,32.000,R,ugm-3 (BAM)
08-01-2021,13:00,46.67394,R,ugm-3,56.64188,R,ugm-3,128.20758,R,ugm-3,25.000,R,ugm-3 (BAM)
08-01-2021,14:00,25.22017,R,ugm-3,55.46171,R,ugm-3,94.13210,R,ugm-3,24.000,R,ugm-3 (BAM)
08-01-2021,15:00,21.56454,R,ugm-3,58.12354,R,ugm-3,91.18870,R,ugm-3,27.000,R,ugm-3 (BAM)
08-01-2021,16:00,20.38292,R,ugm-3,59.08627,R,ugm-3,90.33965,R,ugm-3,25.000,R,ugm-3 (BAM)
08-01-2021,17:00,13.92094,R,ugm-3,60.56053,R,ugm-3,81.90568,R,ugm-3,26.000,R,ugm-3 (BAM)
08-01-2021,18:00,13.95787,R,ugm-3,58.86240,R,ugm-3,80.26417,R,ugm-3,21.000,R,ugm-3 (BAM)
08-01-2021,19:00,7.71745,R,ugm-3,51.22337,R,ugm-3,63.05662,R,ugm-3,19.000,R,ugm-3 (BAM)
08-01-2021,20:00,5.50191,R,ugm-3,48.28085,R,ugm-3,56.71700,R,ugm-3,21.000,R,ugm-3 (BAM)
08-01-2021,21:00,4.72648,R,ugm-3,48.28116,R,ugm-3,55.52832,R,ugm-3,23.000,R,ugm-3 (BAM)
08-01-2021,22:00,3.72948,R,ugm-3,41.54570,R,ugm-3,47.26416,R,ugm-3,26.000,R,ugm-3 (BAM)
08-01-2021,23:00,4.17259,R,ugm-3,43.30024,R,ugm-3,49.69813,R,ugm-3,26.000,R,ugm-3 (BAM)
08-01-2021,24:00,2.65864,R,ugm-3,32.26310,R,ugm-3,36.33963,R,ugm-3,23.000,R,ugm-3 (BAM)
09-01-2021,01:00,2.01831,R,ugm-3,31.22811,R,ugm-3,34.32281,R,ugm-3,20.000,R,ugm-3 (BAM)
09-01-2021,02:00,1.32913,R,ugm-3,25.19397,R,ugm-3,27.23195,R,ugm-3,16.000,R,ugm-3 (BAM)
09-01-2021,03:00,1.29221,R,ugm-3,22.74237,R,ugm-3,24.72374,R,ugm-3,10.000,R,ugm-3 (BAM)
09-01-2021,04:00,0.81225,R,ugm-3,20.98896,R,ugm-3,22.23439,R,ugm-3,16.000,R,ugm-3 (BAM)
09-01-2021,05:00,0.77533,R,ugm-3,24.10068,R,ugm-3,25.28950,R,ugm-3,11.000,R,ugm-3 (BAM)
09-01-2021,06:00,0.73841,R,ugm-3,24.72305,R,ugm-3,25.85526,R,ugm-3,11.000,R,ugm-3 (BAM)
09-01-2021,07:00,1.84602,R,ugm-3,28.90865,R,ugm-3,31.73917,R,ugm-3,15.000,R,ugm-3 (BAM)
09-01-2021,08:00,3.24899,R,ugm-3,37.45033,R,ugm-3,42.43205,R,ugm-3,12.000,R,ugm-3 (BAM)
09-01-2021,09:00,7.64252,R,ugm-3,47.85623,R,ugm-3,59.57460,R,ugm-3,11.000,R,ugm-3 (BAM)
09-01-2021,10:00,15.24812,R,ugm-3,45.58610,R,ugm-3,68.96622,R,ugm-3,15.000,R,ugm-3 (BAM)
09-01-2021,11:00,22.15223,R,ugm-3,51.01098,R,ugm-3,84.97725,R,ugm-3,11.000,R,ugm-3 (BAM)
09-01-2021,12:00,29.53630,R,ugm-3,55.30388,R,ugm-3,100.59224,R,ugm-3,17.000,R,ugm-3 (BAM)
09-01-2021,13:00,37.84339,R,ugm-3,59.93538,R,ugm-3,117.96109,R,ugm-3,22.000,R,ugm-3 (BAM)
09-01-2021,14:00,41.53542,R,ugm-3,64.34487,R,ugm-3,128.03163,R,ugm-3,24.000,R,ugm-3 (BAM)
09-01-2021,15:00,30.31163,R,ugm-3,66.84467,R,ugm-3,113.32185,R,ugm-3,19.000,R,ugm-3 (BAM)
09-01-2021,16:00,23.62904,R,ugm-3,67.02063,R,ugm-3,103.25132,R,ugm-3,24.000,R,ugm-3 (BAM)
09-01-2021,17:00,35.29588,R,ugm-3,67.85840,R,ugm-3,121.97799,R,ugm-3,28.000,R,ugm-3 (BAM)
09-01-2021,18:00,49.58407,R,ugm-3,72.20144,R,ugm-3,148.22929,R,ugm-3,34.000,R,ugm-3 (BAM)
09-01-2021,19:00,50.91320,R,ugm-3,76.21711,R,ugm-3,154.28292,R,ugm-3,32.000,R,ugm-3 (BAM)
09-01-2021,20:00,36.21889,R,ugm-3,70.40346,R,ugm-3,125.93832,R,ugm-3,36.000,R,ugm-3 (BAM)
09-01-2021,21:00,51.76237,R,ugm-3,66.08920,R,ugm-3,145.45706,R,ugm-3,46.000,R,ugm-3 (BAM)
09-01-2021,22:00,39.54172,R,ugm-3,53.14467,R,ugm-3,113.77446,R,ugm-3,31.000,R,ugm-3 (BAM)
09-01-2021,23:00,21.85686,R,ugm-3,46.14571,R,ugm-3,79.65910,R,ugm-3,29.000,R,ugm-3 (BAM)
09-01-2021,24:00,11.70376,R,ugm-3,43.89212,R,ugm-3,61.83764,R,ugm-3,28.000,R,ugm-3 (BAM)
10-01-2021,01:00,5.75877,R,ugm-3,43.94846,R,ugm-3,52.77845,R,ugm-3,18.000,R,ugm-3 (BAM)
10-01-2021,02:00,1.87037,R,ugm-3,41.46604,R,ugm-3,44.33390,R,ugm-3,17.000,R,ugm-3 (BAM)
10-01-2021,03:00,0.88597,R,ugm-3,31.10029,R,ugm-3,32.45875,R,ugm-3,14.000,R,ugm-3 (BAM)
10-01-2021,04:00,0.99671,R,ugm-3,27.31139,R,ugm-3,28.83965,R,ugm-3,17.000,R,ugm-3 (BAM)
10-01-2021,05:00,0.77522,R,ugm-3,24.08846,R,ugm-3,25.27711,R,ugm-3,14.000,R,ugm-3 (BAM)
10-01-2021,06:00,0.73830,R,ugm-3,21.93967,R,ugm-3,23.07172,R,ugm-3,16.000,R,ugm-3 (BAM)
10-01-2021,07:00,1.03363,R,ugm-3,23.57914,R,ugm-3,25.16401,R,ugm-3,15.000,R,ugm-3 (BAM)
10-01-2021,08:00,1.40278,R,ugm-3,25.89708,R,ugm-3,28.04798,R,ugm-3,20.000,R,ugm-3 (BAM)
10-01-2021,09:00,1.91959,R,ugm-3,28.38445,R,ugm-3,31.32778,R,ugm-3,17.000,R,ugm-3 (BAM)
10-01-2021,10:00,2.91630,R,ugm-3,28.32644,R,ugm-3,32.79804,R,ugm-3,20.000,R,ugm-3 (BAM)
10-01-2021,11:00,6.38632,R,ugm-3,31.65770,R,ugm-3,41.44993,R,ugm-3,16.000,R,ugm-3 (BAM)
10-01-2021,12:00,5.13121,R,ugm-3,28.66248,R,ugm-3,36.53023,R,ugm-3,16.000,R,ugm-3 (BAM)
10-01-2021,13:00,5.72185,R,ugm-3,31.48903,R,ugm-3,40.26242,R,ugm-3,20.000,R,ugm-3 (BAM)
10-01-2021,14:00,8.67507,R,ugm-3,37.19608,R,ugm-3,50.49767,R,ugm-3,24.000,R,ugm-3 (BAM)
10-01-2021,15:00,9.81944,R,ugm-3,42.62305,R,ugm-3,57.67930,R,ugm-3,23.000,R,ugm-3 (BAM)
10-01-2021,16:00,7.53070,R,ugm-3,46.35859,R,ugm-3,57.90550,R,ugm-3,25.000,R,ugm-3 (BAM)
10-01-2021,17:00,6.68165,R,ugm-3,51.44919,R,ugm-3,61.69424,R,ugm-3,24.000,R,ugm-3 (BAM)
10-01-2021,18:00,5.75877,R,ugm-3,54.22141,R,ugm-3,63.05140,R,ugm-3,28.000,R,ugm-3 (BAM)
10-01-2021,19:00,7.49378,R,ugm-3,56.82009,R,ugm-3,68.31039,R,ugm-3,25.000,R,ugm-3 (BAM)
10-01-2021,20:00,2.73172,R,ugm-3,47.15731,R,ugm-3,51.34589,R,ugm-3,19.000,R,ugm-3 (BAM)
10-01-2021,21:00,1.47661,R,ugm-3,37.94177,R,ugm-3,40.20587,R,ugm-3,23.000,R,ugm-3 (BAM)
10-01-2021,22:00,0.88597,R,ugm-3,32.17471,R,ugm-3,33.53316,R,ugm-3,14.000,R,ugm-3 (BAM)
10-01-2021,23:00,0.81213,R,ugm-3,28.78191,R,ugm-3,30.02717,R,ugm-3,18.000,R,ugm-3 (BAM)
10-01-2021,24:00,0.77522,R,ugm-3,25.84145,R,ugm-3,27.03011,R,ugm-3,15.000,R,ugm-3 (BAM)
11-01-2021,01:00,0.63977,R,ugm-3,24.18954,R,ugm-3,25.17051,R,ugm-3,22.000,R,ugm-3 (BAM)
11-01-2021,02:00,0.68899,R,ugm-3,23.73728,R,ugm-3,24.79371,R,ugm-3,21.000,R,ugm-3 (BAM)
11-01-2021,03:00,0.47983,R,ugm-3,19.89430,R,ugm-3,20.63002,R,ugm-3,19.000,R,ugm-3 (BAM)
11-01-2021,04:00,0.55365,R,ugm-3,21.08108,R,ugm-3,21.93000,R,ugm-3,19.000,R,ugm-3 (BAM)
11-01-2021,05:00,0.47983,R,ugm-3,18.02912,R,ugm-3,18.76484,R,ugm-3,8.000,R,ugm-3 (BAM)
11-01-2021,06:00,0.36910,R,ugm-3,13.33813,R,ugm-3,13.90407,R,ugm-3,8.000,R,ugm-3 (BAM)
11-01-2021,07:00,0.70129,R,ugm-3,18.65040,R,ugm-3,19.72569,R,ugm-3,6.000,R,ugm-3 (BAM)
11-01-2021,08:00,2.39915,R,ugm-3,29.04679,R,ugm-3,32.72543,R,ugm-3,6.000,R,ugm-3 (BAM)
11-01-2021,09:00,1.62404,R,ugm-3,27.29620,R,ugm-3,29.78636,R,ugm-3,7.000,R,ugm-3 (BAM)
11-01-2021,10:00,2.54679,R,ugm-3,27.85956,R,ugm-3,31.76458,R,ugm-3,7.000,R,ugm-3 (BAM)
11-01-2021,11:00,3.17426,R,ugm-3,22.88450,R,ugm-3,27.75162,R,ugm-3,5.000,R,ugm-3 (BAM)
11-01-2021,12:00,8.48929,R,ugm-3,27.11290,R,ugm-3,40.12963,R,ugm-3,7.000,R,ugm-3 (BAM)
11-01-2021,13:00,2.25151,R,ugm-3,23.28199,R,ugm-3,26.73425,R,ugm-3,8.000,R,ugm-3 (BAM)
11-01-2021,14:00,1.73477,R,ugm-3,19.32658,R,ugm-3,21.98652,R,ugm-3,5.000,R,ugm-3 (BAM)
11-01-2021,15:00,2.39915,R,ugm-3,21.47303,R,ugm-3,25.15167,R,ugm-3,3.000,R,ugm-3 (BAM)
11-01-2021,16:00,1.77168,R,ugm-3,19.66563,R,ugm-3,22.38216,R,ugm-3,3.000,R,ugm-3 (BAM)
11-01-2021,17:00,1.32876,R,ugm-3,20.51432,R,ugm-3,22.55172,R,ugm-3,3.000,R,ugm-3 (BAM)
11-01-2021,18:00,1.14421,R,ugm-3,20.06253,R,ugm-3,21.81696,R,ugm-3,5.000,R,ugm-3 (BAM)
11-01-2021,19:00,1.03348,R,ugm-3,19.49754,R,ugm-3,21.08219,R,ugm-3,4.000,R,ugm-3 (BAM)
11-01-2021,20:00,1.99314,R,ugm-3,18.93042,R,ugm-3,21.98652,R,ugm-3,6.000,R,ugm-3 (BAM)
11-01-2021,21:00,0.81202,R,ugm-3,13.95897,R,ugm-3,15.20404,R,ugm-3,4.000,R,ugm-3 (BAM)
11-01-2021,22:00,0.29528,R,ugm-3,12.32090,R,ugm-3,12.77366,R,ugm-3,2.000,R,ugm-3 (BAM)
11-01-2021,23:00,0.25837,R,ugm-3,11.98185,R,ugm-3,12.37801,R,ugm-3,3.000,R,ugm-3 (BAM)
11-01-2021,24:00,0.36910,R,ugm-3,9.21212,R,ugm-3,9.77807,R,ugm-3,2.000,R,ugm-3 (BAM)
12-01-2021,01:00,0.29524,R,ugm-3,7.68228,R,ugm-3,8.13498,R,ugm-3,0.000,R,ugm-3 (BAM)
12-01-2021,02:00,0.29524,R,ugm-3,6.40178,R,ugm-3,6.85447,R,ugm-3,2.000,R,ugm-3 (BAM)
12-01-2021,03:00,0.33214,R,ugm-3,7.34323,R,ugm-3,7.85251,R,ugm-3,2.000,R,ugm-3 (BAM)
12-01-2021,04:00,0.33214,R,ugm-3,8.07764,R,ugm-3,8.58692,R,ugm-3,1.000,R,ugm-3 (BAM)
12-01-2021,05:00,0.36905,R,ugm-3,8.19053,R,ugm-3,8.75640,R,ugm-3,3.000,R,ugm-3 (BAM)